• In Belarus
  • List of Countries
  • For 7 days
  • Water Temperature
  • Satellite Maps
  • Weather Map
  • Weather Widgets
  • user-avatar
    Login

    Hourly Weather Durres

    Today, 24 September, Monday

    Time Temperature Precipitation Wind Pressure Humidity
    00:00 +24°C° 0 mm 3 mps 761 mmHg 49%
    01:00 +22°C° 0 mm 3 mps 761 mmHg 50%
    02:00 +22°C° 0 mm 3 mps 761 mmHg 49%
    03:00 +21°C° 0 mm 3 mps 761 mmHg 49%
    04:00 +21°C° 0 mm 4 mps 760 mmHg 48%
    05:00 +22°C° 0 mm 4 mps 760 mmHg 46%
    06:00 +23°C° 0 mm 4 mps 760 mmHg 44%
    07:00 +26°C° 0 mm 5 mps 760 mmHg 43%
    08:00 +27°C° 0 mm 5 mps 759 mmHg 40%
    09:00 +29°C° 0 mm 5 mps 759 mmHg 36%
    10:00 +32°C° 0 mm 5 mps 759 mmHg 33%
    11:00 +32°C° 0.1 mm 5 mps 759 mmHg 34%
    12:00 +33°C° 0.1 mm 5 mps 759 mmHg 35%
    13:00 +33°C° 0.1 mm 6 mps 759 mmHg 36%
    14:00 +33°C° 0.2 mm 5 mps 759 mmHg 42%
    15:00 +32°C° 0.2 mm 5 mps 759 mmHg 48%
    16:00 +30°C° 0.2 mm 4 mps 759 mmHg 54%
    17:00 +28°C° 0.5 mm 4 mps 760 mmHg 61%
    18:00 +26°C° 0.5 mm 4 mps 760 mmHg 67%
    19:00 +22°C° 0.5 mm 4 mps 761 mmHg 73%
    20:00 +22°C° 0 mm 5 mps 761 mmHg 71%
    21:00 +21°C° 0 mm 5 mps 762 mmHg 70%
    22:00 +21°C° 0 mm 6 mps 763 mmHg 68%
    23:00 +20°C° 0.1 mm 7 mps 763 mmHg 64%

    Tomorrow, 25 September, Tuesday

    Time Temperature Precipitation Wind Pressure Humidity
    00:00 +20°C° 0.1 mm 7 mps 763 mmHg 60%
    01:00 +18°C° 0.1 mm 8 mps 764 mmHg 56%
    02:00 +18°C° 0 mm 8 mps 764 mmHg 55%
    03:00 +17°C° 0 mm 8 mps 764 mmHg 54%
    04:00 +16°C° 0 mm 8 mps 764 mmHg 53%
    05:00 +16°C° 0 mm 8 mps 765 mmHg 51%
    06:00 +16°C° 0 mm 8 mps 765 mmHg 49%
    07:00 +17°C° 0 mm 8 mps 765 mmHg 47%
    08:00 +20°C° 0 mm 8 mps 765 mmHg 41%
    09:00 +22°C° 0 mm 8 mps 765 mmHg 35%
    10:00 +24°C° 0 mm 8 mps 766 mmHg 30%
    11:00 +26°C° 0 mm 8 mps 766 mmHg 27%
    12:00 +27°C° 0 mm 8 mps 765 mmHg 25%
    13:00 +28°C° 0 mm 8 mps 765 mmHg 23%
    14:00 +27°C° 0 mm 8 mps 765 mmHg 23%
    15:00 +27°C° 0 mm 8 mps 765 mmHg 23%
    16:00 +26°C° 0 mm 8 mps 765 mmHg 23%
    17:00 +23°C° 0 mm 8 mps 766 mmHg 26%
    18:00 +21°C° 0 mm 8 mps 766 mmHg 29%
    19:00 +18°C° 0 mm 8 mps 767 mmHg 32%
    20:00 +17°C° 0 mm 9 mps 768 mmHg 34%
    21:00 +16°C° 0 mm 9 mps 768 mmHg 35%
    22:00 +15°C° 0 mm 9 mps 769 mmHg 37%
    23:00 +13°C° 0 mm 9 mps 769 mmHg 38%

    Day after tomorrow, 26 September, Wednesday

    Time Temperature Precipitation Wind Pressure Humidity
    00:00 +13°C° 0 mm 9 mps 769 mmHg 39%
    01:00 +12°C° 0 mm 9 mps 769 mmHg 40%
    02:00 +11°C° 0 mm 9 mps 769 mmHg 41%
    03:00 +11°C° 0 mm 9 mps 769 mmHg 42%
    04:00 +10°C° 0 mm 8 mps 769 mmHg 43%
    05:00 +11°C° 0 mm 9 mps 770 mmHg 41%
    06:00 +12°C° 0 mm 9 mps 770 mmHg 39%
    07:00 +13°C° 0 mm 9 mps 770 mmHg 37%
    08:00 +16°C° 0 mm 9 mps 770 mmHg 31%
    09:00 +18°C° 0 mm 9 mps 771 mmHg 26%
    10:00 +21°C° 0 mm 8 mps 771 mmHg 21%
    11:00 +22°C° 0 mm 8 mps 770 mmHg 19%
    12:00 +22°C° 0 mm 8 mps 770 mmHg 18%
    13:00 +23°C° 0 mm 8 mps 770 mmHg 16%
    14:00 +23°C° 0 mm 8 mps 770 mmHg 17%
    15:00 +22°C° 0 mm 7 mps 770 mmHg 17%
    16:00 +22°C° 0 mm 7 mps 770 mmHg 18%
    17:00 +20°C° 0 mm 7 mps 770 mmHg 21%
    18:00 +16°C° 0 mm 7 mps 771 mmHg 25%
    19:00 +14°C° 0 mm 7 mps 771 mmHg 28%
    20:00 +12°C° 0 mm 7 mps 772 mmHg 30%
    21:00 +12°C° 0 mm 7 mps 772 mmHg 32%
    22:00 +11°C° 0 mm 7 mps 772 mmHg 33%
    23:00 +10°C° 0 mm 6 mps 772 mmHg 35%

    27 September, Thursday

    Time Temperature Precipitation Wind Pressure Humidity
    00:00 +10°C° 0 mm 6 mps 772 mmHg 38%
    01:00 +10°C° 0 mm 5 mps 772 mmHg 40%
    02:00 +9°C° 0 mm 5 mps 771 mmHg 40%
    03:00 +9°C° 0 mm 5 mps 771 mmHg 41%
    04:00 +9°C° 0 mm 5 mps 771 mmHg 41%
    05:00 +10°C° 0 mm 5 mps 770 mmHg 39%
    06:00 +12°C° 0 mm 5 mps 770 mmHg 36%
    07:00 +13°C° 0 mm 5 mps 770 mmHg 34%
    08:00 +16°C° 0 mm 5 mps 769 mmHg 28%
    09:00 +19°C° 0 mm 5 mps 769 mmHg 23%
    10:00 +22°C° 0 mm 5 mps 768 mmHg 17%
    11:00 +23°C° 0 mm 5 mps 768 mmHg 16%
    12:00 +24°C° 0 mm 6 mps 767 mmHg 15%
    13:00 +26°C° 0 mm 6 mps 766 mmHg 14%
    14:00 +26°C° 0 mm 6 mps 766 mmHg 14%
    15:00 +26°C° 0 mm 7 mps 765 mmHg 15%
    16:00 +26°C° 0 mm 7 mps 765 mmHg 16%
    17:00 +22°C° 0 mm 7 mps 765 mmHg 19%
    18:00 +20°C° 0 mm 7 mps 765 mmHg 22%
    19:00 +16°C° 0 mm 7 mps 765 mmHg 26%
    20:00 +15°C° 0 mm 7 mps 765 mmHg 28%
    21:00 +14°C° 0 mm 7 mps 765 mmHg 31%
    22:00 +14°C° 0 mm 7 mps 765 mmHg 33%
    23:00 +12°C° 0 mm 7 mps 764 mmHg 34%

    28 September, Friday

    Time Temperature Precipitation Wind Pressure Humidity
    00:00 +12°C° 0 mm 7 mps 764 mmHg 35%
    01:00 +11°C° 0 mm 6 mps 764 mmHg 36%
    02:00 +11°C° 0 mm 6 mps 763 mmHg 36%
    03:00 +11°C° 0 mm 6 mps 763 mmHg 36%
    04:00 +11°C° 0 mm 6 mps 762 mmHg 36%
    05:00 +13°C° 0 mm 6 mps 762 mmHg 35%
    06:00 +14°C° 0 mm 6 mps 762 mmHg 34%
    07:00 +15°C° 0 mm 6 mps 762 mmHg 33%
    08:00 +19°C° 0 mm 6 mps 762 mmHg 28%
    09:00 +22°C° 0 mm 5 mps 762 mmHg 23%
    10:00 +26°C° 0 mm 5 mps 761 mmHg 19%
    11:00 +27°C° 0 mm 4 mps 761 mmHg 19%
    12:00 +28°C° 0 mm 4 mps 760 mmHg 18%
    13:00 +29°C° 0 mm 3 mps 760 mmHg 18%
    14:00 +28°C° 0 mm 4 mps 760 mmHg 19%
    15:00 +28°C° 0 mm 5 mps 759 mmHg 20%
    16:00 +28°C° 0 mm 5 mps 759 mmHg 21%
    17:00 +26°C° 0 mm 5 mps 759 mmHg 25%
    18:00 +22°C° 0 mm 5 mps 760 mmHg 29%
    19:00 +20°C° 0 mm 6 mps 760 mmHg 33%
    20:00 +19°C° 0 mm 5 mps 760 mmHg 33%
    21:00 +17°C° 0 mm 5 mps 760 mmHg 33%
    22:00 +18°C° 0 mm 4 mps 760 mmHg 34%
    23:00 +17°C° 0 mm 4 mps 760 mmHg 36%

    29 September, Saturday

    Time Temperature Precipitation Wind Pressure Humidity
    00:00 +17°C° 0 mm 4 mps 760 mmHg 38%
    01:00 +16°C° 0 mm 3 mps 760 mmHg 41%
    02:00 +16°C° 0 mm 3 mps 760 mmHg 42%
    03:00 +16°C° 0 mm 3 mps 760 mmHg 44%
    04:00 +16°C° 0 mm 3 mps 760 mmHg 45%
    05:00 +17°C° 0 mm 2 mps 760 mmHg 43%
    06:00 +18°C° 0 mm 2 mps 760 mmHg 42%
    07:00 +18°C° 0 mm 2 mps 760 mmHg 40%
    08:00 +21°C° 0 mm 2 mps 760 mmHg 35%
    09:00 +25°C° 0 mm 2 mps 760 mmHg 29%
    10:00 +27°C° 0 mm 1 mps 760 mmHg 24%
    11:00 +28°C° 0 mm 2 mps 759 mmHg 23%
    12:00 +28°C° 0 mm 3 mps 759 mmHg 22%
    13:00 +29°C° 0 mm 3 mps 759 mmHg 21%
    14:00 +28°C° 0 mm 4 mps 759 mmHg 24%
    15:00 +28°C° 0 mm 4 mps 759 mmHg 26%
    16:00 +27°C° 0 mm 5 mps 759 mmHg 28%
    17:00 +25°C° 0 mm 4 mps 759 mmHg 37%
    18:00 +22°C° 0 mm 4 mps 760 mmHg 45%
    19:00 +19°C° 0 mm 3 mps 760 mmHg 53%
    20:00 +19°C° 0 mm 3 mps 761 mmHg 50%
    21:00 +19°C° 0 mm 3 mps 761 mmHg 48%
    22:00 +18°C° 0 mm 3 mps 761 mmHg 45%
    23:00 +18°C° 0 mm 3 mps 762 mmHg 45%
    Show more